Погода в Черновском

Россия / Пермский край     57°29′53″N   54°32′44″E
темп.,
°C
ветер,
м/с
пор.,
м/с
влажн.,
%
обл.,
%
осадки,
мм/ч
давл.,
гПа
погр.,
м
20 апреля, вт
вт2023:00−1всв37590 0.0 1035121
02:00−1всв22550 0.0 103525
05:00−1св11540 0.0 103611
08:00+1св12485 0.0 1036135
11:00+5св11375 0.0 1036875
14:00+7зсз11324 0.0 10341235
17:00+8сз22305 0.0 10331228
20:00+6юв00421 0.0 103210
21 апреля, ср
ср2123:00+4ю11450 0.0 103310
02:00+2в21510 0.0 103210
05:00+1юв11560 0.0 103310
08:00+3юв23524 0.0 1033126
11:00+8ююв453968 0.0 1031788
14:00+11ююв673397 0.0 10301286
17:00+11ююв7935100 0.0 10281256
20:00+8ююв51146100 0.0 1028450
22 апреля, чт
чт2223:00+6ююв51355100 0.0 1027343
02:00+6ююв51356100 0.0 1026419
05:00+5ю61368100 0.1 1027923
08:00+4ю71283100 0.0 1027965
11:00+4ю61194100 0.1 1028837
14:00+3ю71396100 1.8 1028727
17:00+3ю61396100 3.4 1028690
20:00+4ю61297100 0.3 1029735
23 апреля, пт
пт2323:00+3ю51098100 0.3 1028582
02:00+3ю4898100 0.0 1027419
05:00+3ю4898100 0.0 1028390
08:00+4ююв4897100 0.0 1028441
11:00+4ю4797100 0.0 1028506
14:00+4ю3595100 0.0 1028465
17:00+5ююв4591100 0.1 1028541
20:00+5ююв3594100 0.0 1028300
24 апреля, сб
сб2423:00+4юв119691 0.0 102714
02:00+4вюв229699 0.0 102641
05:00+4всв2494100 0.0 102589
08:00+4всв4790100 0.0 1023273
11:00+8всв5773100 0.0 1021818
14:00+8всв5672100 0.0 1019932
17:00+8всв6882100 0.1 1018911
20:00+6всв5894100 0.1 1017465